Погода в Лесном Конобееве

Россия / Рязанская область     54°02′20″N   41°55′07″E
темп.,
°C
ветер,
м/с
пор.,
м/с
влажн.,
%
обл.,
%
осадки,
мм/ч
давл.,
гПа
погр.,
м
23 апреля, пт
пт2300:00+8ю347251 0.0 102175
03:00+6ююв347854 0.0 102164
06:00+8ю31275100 0.0 1021309
09:00+13ю476327 0.0 1020486
12:00+16ю465192 1.3 10191837
15:00+14ю366295 2.0 1018240
18:00+13ююв246822 0.4 1017130
21:00+9юв36845 0.6 1016105
24 апреля, сб
сб2400:00+8ююв39917 0.0 1014180
03:00+7юв4109375 0.1 1012250
06:00+8ююв4109065 0.1 1010323
09:00+11ю61076100 0.2 1008766
12:00+13ююз61063100 0.8 10061679
15:00+4з71195100 3.4 1008624
18:00+6з488083 0.6 10081002
21:00+6зюз4108198 1.2 1008793
25 апреля, вс
вс2500:00+3юз511810 0.0 1008437
03:00+2юз5109175 0.0 1008496
06:00+2зюз5991100 0.0 1008920
09:00+5з7117056 0.4 10111246
12:00+8зюз8115289 0.2 10122100
15:00+8зюз7115144 0.9 10132393
18:00+8зюз510535 0.0 10131388
21:00+4ююз387383 0.1 1013187
26 апреля, пн
пн2600:00+3ююз5128957 0.0 1014554
03:00+3юз49905 0.2 1014423
06:00+2юз38912 0.0 1015309
09:00+6юз466196 0.0 10151112
12:00+9юз5743100 0.1 10142166
15:00+10юз4740100 0.1 10132264
18:00+8ююз3453100 0.0 1012429
21:00+6ю2469100 0.1 101182
27 апреля, вт
вт2700:00+4ююз2487100 0.1 1010120
03:00+4зюз2492100 1.6 1009200
06:00+3з1294100 1.3 1009344
09:00+4юз2390100 2.0 1008488
12:00+5с2285100 1.9 1008511
15:00+7з476598 3.4 10071473
18:00+6з487696 1.8 1007974
21:00+3зюз399099 2.3 1009248